"read_dt","SO2 (ppb)","flags","PMT voltage (V)","lamp voltage (V)","lamp intensity (Hz)","internal temp (C)","react chamber temp (C)","sample flow (l/min)","pres (mmHg)","SO2 bkg (ppb)","SO2 coefficient"
2014-06-22 00:00:00,1903E-3,5C000000,-0724,0838,12079,025.9,045.4,0.487,734.8,01.18,0.508
2014-06-22 00:01:00,1809E-3,5C000000,-0724,0837,12055,025.9,045.4,0.487,734.7,01.18,0.508
2014-06-22 00:02:00,1789E-3,5C000000,-0724,0838,12158,025.9,045.4,0.487,734.8,01.18,0.508
2014-06-22 00:03:00,1786E-3,5C000000,-0724,0838,12113,025.9,045.4,0.487,734.8,01.18,0.508
2014-06-22 00:04:00,1904E-3,5C000000,-0724,0838,12262,025.9,045.4,0.487,734.8,01.18,0.508
2014-06-22 00:05:00,1835E-3,5C000000,-0724,0837,12177,025.9,045.4,0.487,734.9,01.18,0.508
2014-06-22 00:06:00,1851E-3,5C000000,-0724,0838,12184,025.9,045.4,0.487,734.9,01.18,0.508
2014-06-22 00:07:00,1955E-3,5C000000,-0724,0837,12181,025.9,045.4,0.487,734.9,01.18,0.508
2014-06-22 00:08:00,1880E-3,5C000000,-0724,0838,12106,025.9,045.4,0.487,734.9,01.18,0.508
2014-06-22 00:09:00,1928E-3,5C000000,-0724,0838,12068,025.9,045.4,0.487,734.9,01.18,0.508
2014-06-22 00:10:00,1771E-3,5C000000,-0724,0837,12067,026.0,045.5,0.487,734.9,01.18,0.508
2014-06-22 00:11:00,1954E-3,5C000000,-0724,0837,12078,025.9,045.4,0.487,734.9,01.18,0.508
2014-06-22 00:12:00,1723E-3,5C000000,-0724,0838,11984,025.9,045.4,0.487,734.9,01.18,0.508
2014-06-22 00:13:00,1807E-3,5C000000,-0724,0838,12040,025.9,045.4,0.487,734.9,01.18,0.508
2014-06-22 00:14:00,1755E-3,5C000000,-0724,0838,12006,025.9,045.4,0.487,734.9,01.18,0.508
2014-06-22 00:15:00,1836E-3,5C000000,-0724,0838,11985,025.9,045.5,0.487,734.9,01.18,0.508
2014-06-22 00:16:00,1826E-3,5C000000,-0724,0838,12143,025.9,045.5,0.487,734.8,01.18,0.508
2014-06-22 00:17:00,1991E-3,5C000000,-0724,0838,12075,025.9,045.4,0.487,734.9,01.18,0.508
2014-06-22 00:18:00,1883E-3,5C000000,-0724,0838,12174,025.9,045.5,0.487,734.9,01.18,0.508
2014-06-22 00:19:00,1809E-3,5C000000,-0724,0839,12017,025.9,045.4,0.487,734.8,01.18,0.508
2014-06-22 00:20:00,1885E-3,5C000000,-0724,0839,12201,026.0,045.5,0.487,734.9,01.18,0.508
2014-06-22 00:21:00,1723E-3,5C000000,-0724,0838,12243,026.0,045.4,0.487,734.8,01.18,0.508
2014-06-22 00:22:00,1850E-3,5C000000,-0724,0839,12113,025.9,045.4,0.487,734.9,01.18,0.508
2014-06-22 00:23:00,1866E-3,5C000000,-0724,0838,12173,025.9,045.4,0.487,734.8,01.18,0.508
2014-06-22 00:24:00,1888E-3,5C000000,-0724,0838,12006,026.0,045.5,0.487,734.9,01.18,0.508
2014-06-22 00:25:00,1816E-3,5C000000,-0724,0838,12014,025.9,045.5,0.487,734.9,01.18,0.508
2014-06-22 00:26:00,1844E-3,5C000000,-0724,0838,12134,026.0,045.4,0.487,735.0,01.18,0.508
2014-06-22 00:27:00,1840E-3,5C000000,-0724,0837,12154,026.0,045.4,0.487,735.0,01.18,0.508
2014-06-22 00:28:00,1905E-3,5C000000,-0724,0837,12135,026.0,045.4,0.487,735.0,01.18,0.508
2014-06-22 00:29:00,1772E-3,5C000000,-0724,0838,12153,026.0,045.4,0.487,735.0,01.18,0.508
2014-06-22 00:30:00,1796E-3,5C000000,-0724,0838,12155,026.0,045.4,0.487,735.0,01.18,0.508
2014-06-22 00:31:00,1825E-3,5C000000,-0724,0839,12102,026.0,045.4,0.487,735.0,01.18,0.508
2014-06-22 00:32:00,1779E-3,5C000000,-0724,0837,12148,026.0,045.4,0.487,735.0,01.18,0.508
2014-06-22 00:33:00,1791E-3,5C000000,-0724,0838,12119,026.0,045.4,0.487,735.0,01.18,0.508
2014-06-22 00:34:00,1795E-3,5C000000,-0724,0838,12029,026.0,045.4,0.487,735.0,01.18,0.508
2014-06-22 00:35:00,1791E-3,5C000000,-0724,0838,11955,026.0,045.4,0.487,735.0,01.18,0.508
2014-06-22 00:36:00,1792E-3,5C000000,-0724,0838,12228,026.0,045.4,0.487,734.9,01.18,0.508
2014-06-22 00:37:00,1822E-3,5C000000,-0724,0837,12152,026.0,045.4,0.487,734.9,01.18,0.508
2014-06-22 00:38:00,1793E-3,5C000000,-0724,0838,12207,026.0,045.5,0.487,734.9,01.18,0.508
2014-06-22 00:39:00,1777E-3,5C000000,-0724,0837,12055,026.0,045.4,0.487,734.9,01.18,0.508
2014-06-22 00:40:00,1808E-3,5C000000,-0724,0838,12004,026.0,045.4,0.487,734.9,01.18,0.508
2014-06-22 00:41:00,1875E-3,5C000000,-0724,0837,12103,026.0,045.5,0.487,734.9,01.18,0.508
2014-06-22 00:42:00,1884E-3,5C000000,-0724,0837,12066,025.9,045.4,0.487,734.9,01.18,0.508
2014-06-22 00:43:00,1742E-3,5C000000,-0724,0837,12258,026.0,045.4,0.487,735.0,01.18,0.508
2014-06-22 00:44:00,1877E-3,5C000000,-0724,0838,12215,026.0,045.4,0.487,735.0,01.18,0.508
2014-06-22 00:45:00,1757E-3,5C000000,-0724,0837,12060,026.0,045.4,0.487,734.9,01.18,0.508
2014-06-22 00:46:00,2003E-3,5C000000,-0724,0837,12141,025.9,045.4,0.487,734.9,01.18,0.508
2014-06-22 00:47:00,1847E-3,5C000000,-0724,0839,12106,026.0,045.4,0.487,734.9,01.18,0.508
2014-06-22 00:48:00,1789E-3,5C000000,-0724,0838,12120,026.0,045.4,0.487,734.9,01.18,0.508
2014-06-22 00:49:00,1883E-3,5C000000,-0724,0838,12096,026.0,045.5,0.487,734.9,01.18,0.508
2014-06-22 00:50:00,1917E-3,5C000000,-0724,0838,12138,026.0,045.4,0.487,734.9,01.18,0.508
2014-06-22 00:51:00,1855E-3,5C000000,-0724,0838,12103,026.0,045.4,0.487,734.9,01.18,0.508
2014-06-22 00:52:00,1956E-3,5C000000,-0724,0838,12162,026.0,045.4,0.487,734.8,01.18,0.508
2014-06-22 00:53:00,1991E-3,5C000000,-0724,0839,12114,026.0,045.5,0.487,734.8,01.18,0.508
2014-06-22 00:54:00,1882E-3,5C000000,-0724,0837,12139,026.0,045.4,0.487,734.8,01.18,0.508
2014-06-22 00:55:00,2000E-3,5C000000,-0724,0838,12111,026.0,045.4,0.487,734.8,01.18,0.508
2014-06-22 00:56:00,1856E-3,5C000000,-0724,0837,12156,026.0,045.5,0.487,734.8,01.18,0.508
2014-06-22 00:57:00,1843E-3,5C000000,-0724,0837,12188,026.0,045.5,0.487,734.8,01.18,0.508
2014-06-22 00:58:00,1876E-3,5C000000,-0724,0838,12141,025.9,045.4,0.487,734.8,01.18,0.508
2014-06-22 00:59:00,1734E-3,5C000000,-0724,0839,11919,025.9,045.4,0.487,734.7,01.18,0.508
2014-06-22 01:00:00,1896E-3,5C000000,-0724,0837,12068,025.9,045.4,0.487,734.8,01.18,0.508
2014-06-22 01:01:00,1818E-3,5C000000,-0724,0838,12174,025.9,045.4,0.487,734.8,01.18,0.508
2014-06-22 01:02:00,1864E-3,5C000000,-0724,0838,12120,025.9,045.4,0.487,734.8,01.18,0.508
2014-06-22 01:03:00,1910E-3,5C000000,-0724,0838,12179,025.9,045.4,0.487,734.8,01.18,0.508
2014-06-22 01:04:00,1928E-3,5C000000,-0724,0838,12249,025.9,045.4,0.487,734.9,01.18,0.508
2014-06-22 01:05:00,1766E-3,5C000000,-0724,0838,12131,026.0,045.4,0.487,734.9,01.18,0.508
2014-06-22 01:06:00,1733E-3,5C000000,-0724,0838,12144,026.0,045.4,0.487,734.8,01.18,0.508
2014-06-22 01:07:00,1808E-3,5C000000,-0724,0837,12089,025.9,045.4,0.487,734.8,01.18,0.508
2014-06-22 01:08:00,1964E-3,5C000000,-0724,0838,12146,025.9,045.5,0.487,734.8,01.18,0.508
2014-06-22 01:09:00,1911E-3,5C000000,-0724,0838,12135,026.0,045.5,0.487,734.8,01.18,0.508
2014-06-22 01:10:00,1935E-3,5C000000,-0724,0838,12218,026.0,045.5,0.487,734.8,01.18,0.508
2014-06-22 01:11:00,1884E-3,5C000000,-0724,0838,12290,026.0,045.4,0.487,734.8,01.18,0.508
2014-06-22 01:12:00,1838E-3,5C000000,-0724,0837,12273,026.0,045.4,0.487,734.8,01.18,0.508
2014-06-22 01:13:00,2008E-3,5C000000,-0724,0838,12081,026.0,045.4,0.487,734.8,01.18,0.508
2014-06-22 01:14:00,1902E-3,5C000000,-0724,0838,12188,026.0,045.4,0.487,734.7,01.18,0.508
2014-06-22 01:15:00,1888E-3,5C000000,-0724,0838,12137,026.0,045.4,0.487,734.8,01.18,0.508
2014-06-22 01:16:00,1818E-3,5C000000,-0724,0838,11910,026.0,045.4,0.487,734.8,01.18,0.508
2014-06-22 01:17:00,1874E-3,5C000000,-0724,0838,12031,026.0,045.4,0.487,734.8,01.18,0.508
2014-06-22 01:18:00,1745E-3,5C000000,-0724,0838,12286,026.0,045.4,0.487,734.8,01.18,0.508
2014-06-22 01:19:00,1701E-3,5C000000,-0724,0839,11963,026.0,045.4,0.487,734.8,01.18,0.508
2014-06-22 01:20:00,1941E-3,5C000000,-0724,0837,12021,026.0,045.4,0.487,734.8,01.18,0.508
2014-06-22 01:21:00,1741E-3,5C000000,-0724,0838,12163,026.0,045.5,0.487,734.8,01.18,0.508
2014-06-22 01:22:00,1993E-3,5C000000,-0724,0838,12263,026.0,045.4,0.487,734.7,01.18,0.508
2014-06-22 01:23:00,2021E-3,5C000000,-0724,0837,12239,026.0,045.4,0.487,734.8,01.18,0.508
2014-06-22 01:24:00,1795E-3,5C000000,-0724,0838,11990,026.0,045.4,0.487,734.7,01.18,0.508
2014-06-22 01:25:00,1878E-3,5C000000,-0724,0838,12163,025.9,045.5,0.487,734.8,01.18,0.508
2014-06-22 01:26:00,1932E-3,5C000000,-0724,0838,11977,026.0,045.5,0.487,734.8,01.18,0.508
2014-06-22 01:27:00,1941E-3,5C000000,-0724,0837,12120,026.0,045.4,0.487,734.8,01.18,0.508
2014-06-22 01:28:00,1767E-3,5C000000,-0724,0838,12082,026.0,045.4,0.487,734.8,01.18,0.508
2014-06-22 01:29:00,1893E-3,5C000000,-0724,0837,12146,025.9,045.4,0.487,734.8,01.18,0.508
2014-06-22 01:30:00,1886E-3,5C000000,-0724,0838,12137,026.0,045.4,0.487,734.8,01.18,0.508
2014-06-22 01:31:00,1685E-3,5C000000,-0724,0839,12040,026.0,045.5,0.487,734.8,01.18,0.508
2014-06-22 01:32:00,1747E-3,5C000000,-0724,0837,12208,026.0,045.4,0.487,734.8,01.18,0.508
2014-06-22 01:33:00,2007E-3,5C000000,-0724,0839,12002,026.0,045.4,0.487,734.8,01.18,0.508
2014-06-22 01:34:00,1871E-3,5C000000,-0724,0837,12059,026.0,045.4,0.487,734.7,01.18,0.508
2014-06-22 01:35:00,1696E-3,5C000000,-0724,0838,12293,025.9,045.4,0.487,734.8,01.18,0.508
2014-06-22 01:36:00,1807E-3,5C000000,-0724,0837,11928,025.9,045.4,0.487,734.7,01.18,0.508
2014-06-22 01:37:00,1758E-3,5C000000,-0724,0837,11926,026.0,045.4,0.487,734.8,01.18,0.508
2014-06-22 01:38:00,1863E-3,5C000000,-0724,0837,12090,026.0,045.5,0.487,734.8,01.18,0.508
2014-06-22 01:39:00,1932E-3,5C000000,-0724,0838,12024,025.9,045.5,0.487,734.8,01.18,0.508
2014-06-22 01:40:00,1812E-3,5C000000,-0724,0837,12035,026.0,045.5,0.487,734.8,01.18,0.508
2014-06-22 01:41:00,1797E-3,5C000000,-0724,0838,12104,025.9,045.4,0.487,734.7,01.18,0.508
2014-06-22 01:42:00,1940E-3,5C000000,-0724,0837,12069,026.0,045.4,0.487,734.8,01.18,0.508
2014-06-22 01:43:00,1992E-3,5C000000,-0724,0837,12215,026.0,045.5,0.487,734.8,01.18,0.508
2014-06-22 01:44:00,1879E-3,5C000000,-0724,0838,12118,026.0,045.4,0.487,734.8,01.18,0.508
2014-06-22 01:45:00,1815E-3,5C000000,-0724,0838,12077,026.0,045.4,0.487,734.8,01.18,0.508
2014-06-22 01:46:00,1879E-3,5C000000,-0724,0838,12187,026.0,045.4,0.487,734.8,01.18,0.508
2014-06-22 01:47:00,1818E-3,5C000000,-0724,0837,12168,026.0,045.5,0.487,734.8,01.18,0.508
2014-06-22 01:48:00,1860E-3,5C000000,-0724,0838,12147,026.0,045.4,0.487,734.7,01.18,0.508
2014-06-22 01:49:00,1834E-3,5C000000,-0724,0838,12294,026.0,045.4,0.487,734.7,01.18,0.508
2014-06-22 01:50:00,1745E-3,5C000000,-0724,0837,12293,025.9,045.4,0.487,734.7,01.18,0.508
2014-06-22 01:51:00,1721E-3,5C000000,-0724,0838,12131,026.0,045.4,0.487,734.7,01.18,0.508
2014-06-22 01:52:00,1790E-3,5C000000,-0724,0837,11926,026.0,045.4,0.487,734.7,01.18,0.508
2014-06-22 01:53:00,1769E-3,5C000000,-0724,0837,12197,026.0,045.4,0.487,734.8,01.18,0.508
2014-06-22 01:54:00,1682E-3,5C000000,-0724,0838,12128,026.0,045.4,0.487,734.8,01.18,0.508
2014-06-22 01:55:00,1788E-3,5C000000,-0724,0837,12132,026.0,045.4,0.487,734.8,01.18,0.508
2014-06-22 01:56:00,1790E-3,5C000000,-0724,0838,12266,026.0,045.4,0.487,734.8,01.18,0.508
2014-06-22 01:57:00,1825E-3,5C000000,-0724,0837,11913,026.0,045.4,0.487,734.8,01.18,0.508
2014-06-22 01:58:00,1892E-3,5C000000,-0724,0838,12062,026.0,045.4,0.487,734.8,01.18,0.508
2014-06-22 01:59:00,1807E-3,5C000000,-0724,0837,12129,026.0,045.4,0.487,734.8,01.18,0.508
2014-06-22 02:00:00,1789E-3,5C000000,-0724,0838,12209,026.0,045.4,0.487,734.8,01.18,0.508
2014-06-22 02:01:00,1907E-3,5C000000,-0724,0838,12191,026.0,045.4,0.487,734.8,01.18,0.508
2014-06-22 02:02:00,1659E-3,5C000000,-0724,0839,12081,026.0,045.4,0.487,734.8,01.18,0.508
2014-06-22 02:03:00,1947E-3,5C000000,-0724,0838,12198,026.0,045.4,0.487,734.8,01.18,0.508
2014-06-22 02:04:00,1760E-3,5C000000,-0724,0837,12210,025.9,045.4,0.487,734.8,01.18,0.508
2014-06-22 02:05:00,1894E-3,5C000000,-0724,0838,12180,026.0,045.4,0.487,734.7,01.18,0.508
2014-06-22 02:06:00,1876E-3,5C000000,-0724,0838,12111,026.0,045.4,0.487,734.7,01.18,0.508
2014-06-22 02:07:00,1814E-3,5C000000,-0724,0839,12196,026.0,045.4,0.487,734.8,01.18,0.508
2014-06-22 02:08:00,1738E-3,5C000000,-0724,0838,12151,026.0,045.4,0.487,734.7,01.18,0.508
2014-06-22 02:09:00,1792E-3,5C000000,-0724,0838,11951,026.0,045.4,0.487,734.8,01.18,0.508
2014-06-22 02:10:00,1803E-3,5C000000,-0724,0838,12061,026.0,045.4,0.487,734.8,01.18,0.508
2014-06-22 02:11:00,1766E-3,5C000000,-0724,0839,12003,026.0,045.4,0.487,734.8,01.18,0.508
2014-06-22 02:12:00,1892E-3,5C000000,-0724,0838,12202,026.0,045.4,0.487,734.8,01.18,0.508
2014-06-22 02:13:00,1771E-3,5C000000,-0724,0837,12138,026.0,045.4,0.487,734.8,01.18,0.508
2014-06-22 02:14:00,1922E-3,5C000000,-0724,0839,11839,026.0,045.5,0.487,734.8,01.18,0.508
2014-06-22 02:15:00,1843E-3,5C000000,-0724,0837,12218,026.0,045.5,0.487,734.8,01.18,0.508
2014-06-22 02:16:00,1830E-3,5C000000,-0724,0839,12269,026.0,045.4,0.487,734.8,01.18,0.508
2014-06-22 02:17:00,1877E-3,5C000000,-0724,0838,12153,026.0,045.4,0.487,734.8,01.18,0.508
2014-06-22 02:18:00,1819E-3,5C000000,-0724,0838,12104,026.0,045.5,0.487,734.8,01.18,0.508
2014-06-22 02:19:00,1808E-3,5C000000,-0724,0838,12127,026.0,045.4,0.487,734.9,01.18,0.508
2014-06-22 02:20:00,1827E-3,5C000000,-0724,0837,12017,026.0,045.4,0.487,734.9,01.18,0.508
2014-06-22 02:21:00,1767E-3,5C000000,-0724,0837,12129,026.0,045.5,0.487,734.9,01.18,0.508
2014-06-22 02:22:00,1946E-3,5C000000,-0724,0838,12109,026.0,045.4,0.487,734.9,01.18,0.508
2014-06-22 02:23:00,1840E-3,5C000000,-0724,0837,12096,026.0,045.4,0.487,734.9,01.18,0.508
2014-06-22 02:24:00,1842E-3,5C000000,-0724,0837,12246,026.0,045.4,0.487,734.9,01.18,0.508
2014-06-22 02:25:00,1801E-3,5C000000,-0724,0838,12294,026.0,045.4,0.487,734.9,01.18,0.508
2014-06-22 02:26:00,1769E-3,5C000000,-0724,0839,11864,026.0,045.5,0.487,734.8,01.18,0.508
2014-06-22 02:27:00,1858E-3,5C000000,-0724,0838,12032,026.0,045.4,0.487,734.9,01.18,0.508
2014-06-22 02:28:00,1838E-3,5C000000,-0724,0838,12014,026.0,045.4,0.487,734.8,01.18,0.508
2014-06-22 02:29:00,1724E-3,5C000000,-0724,0839,12185,026.0,045.4,0.487,734.8,01.18,0.508
2014-06-22 02:30:00,1869E-3,5C000000,-0724,0838,12083,026.0,045.4,0.487,734.8,01.18,0.508
2014-06-22 02:31:00,1881E-3,5C000000,-0724,0838,12152,026.0,045.4,0.487,734.8,01.18,0.508
2014-06-22 02:32:00,1868E-3,5C000000,-0724,0838,12006,026.0,045.4,0.487,734.9,01.18,0.508
2014-06-22 02:33:00,1808E-3,5C000000,-0724,0837,12203,026.0,045.5,0.487,734.9,01.18,0.508
2014-06-22 02:34:00,1811E-3,5C000000,-0724,0839,12110,026.0,045.4,0.487,734.9,01.18,0.508
2014-06-22 02:35:00,1786E-3,5C000000,-0724,0838,12239,026.0,045.4,0.487,734.9,01.18,0.508
2014-06-22 02:36:00,1832E-3,5C000000,-0724,0838,12188,026.0,045.4,0.487,734.9,01.18,0.508
2014-06-22 02:37:00,1659E-3,5C000000,-0724,0838,12243,026.0,045.5,0.487,734.9,01.18,0.508
2014-06-22 02:38:00,1770E-3,5C000000,-0724,0838,12105,026.0,045.5,0.487,734.8,01.18,0.508
2014-06-22 02:39:00,1788E-3,5C000000,-0724,0837,12164,026.0,045.4,0.487,734.8,01.18,0.508
2014-06-22 02:40:00,1874E-3,5C000000,-0724,0837,12029,026.0,045.4,0.487,734.8,01.18,0.508
2014-06-22 02:41:00,1909E-3,5C000000,-0724,0838,11865,026.1,045.4,0.487,734.8,01.18,0.508
2014-06-22 02:42:00,1792E-3,5C000000,-0724,0839,12124,026.1,045.4,0.487,734.8,01.18,0.508
2014-06-22 02:43:00,2007E-3,5C000000,-0724,0837,12146,026.1,045.4,0.487,734.8,01.18,0.508
2014-06-22 02:44:00,1840E-3,5C000000,-0724,0838,12204,026.1,045.4,0.487,734.8,01.18,0.508
2014-06-22 02:45:00,1879E-3,5C000000,-0724,0838,12057,026.1,045.4,0.487,734.8,01.18,0.508
2014-06-22 02:46:00,1812E-3,5C000000,-0724,0839,11967,026.1,045.4,0.486,734.7,01.18,0.508
2014-06-22 02:47:00,1781E-3,5C000000,-0724,0838,12084,026.1,045.4,0.487,734.7,01.18,0.508
2014-06-22 02:48:00,1805E-3,5C000000,-0724,0838,12097,026.1,045.4,0.487,734.7,01.18,0.508
2014-06-22 02:49:00,1750E-3,5C000000,-0724,0837,12063,026.1,045.4,0.487,734.6,01.18,0.508
2014-06-22 02:50:00,1774E-3,5C000000,-0724,0838,12281,026.1,045.4,0.486,734.6,01.18,0.508
2014-06-22 02:51:00,1813E-3,5C000000,-0724,0838,12128,026.1,045.4,0.487,734.6,01.18,0.508
2014-06-22 02:52:00,1941E-3,5C000000,-0724,0838,12184,026.1,045.4,0.487,734.6,01.18,0.508
2014-06-22 02:53:00,1992E-3,5C000000,-0724,0838,12056,026.1,045.4,0.487,734.6,01.18,0.508
2014-06-22 02:54:00,1804E-3,5C000000,-0724,0839,11997,026.1,045.4,0.486,734.6,01.18,0.508
2014-06-22 02:55:00,1648E-3,5C000000,-0724,0838,12032,026.1,045.4,0.487,734.6,01.18,0.508
2014-06-22 02:56:00,1830E-3,5C000000,-0724,0838,12174,026.1,045.4,0.487,734.6,01.18,0.508
2014-06-22 02:57:00,1994E-3,5C000000,-0724,0838,12097,026.1,045.4,0.487,734.6,01.18,0.508
2014-06-22 02:58:00,1906E-3,5C000000,-0724,0838,12161,026.1,045.4,0.486,734.6,01.18,0.508
2014-06-22 02:59:00,1765E-3,5C000000,-0724,0838,12066,026.1,045.4,0.487,734.6,01.18,0.508
2014-06-22 03:00:00,1719E-3,5C000000,-0724,0838,12077,026.1,045.4,0.487,734.6,01.18,0.508
2014-06-22 03:01:00,1911E-3,5C000000,-0724,0838,12286,026.1,045.5,0.487,734.6,01.18,0.508
2014-06-22 03:02:00,1825E-3,5C000000,-0724,0838,11995,026.1,045.5,0.487,734.6,01.18,0.508
2014-06-22 03:03:00,2023E-3,5C000000,-0724,0837,12193,026.1,045.4,0.486,734.7,01.18,0.508
2014-06-22 03:04:00,1905E-3,5C000000,-0724,0838,12073,026.1,045.4,0.487,734.7,01.18,0.508
2014-06-22 03:05:00,1901E-3,5C000000,-0724,0838,12020,026.1,045.5,0.487,734.7,01.18,0.508
2014-06-22 03:06:00,1838E-3,5C000000,-0724,0839,12142,026.1,045.5,0.487,734.7,01.18,0.508
2014-06-22 03:07:00,1837E-3,5C000000,-0724,0838,12103,026.1,045.5,0.486,734.7,01.18,0.508
2014-06-22 03:08:00,1864E-3,5C000000,-0724,0838,12211,026.1,045.4,0.487,734.7,01.18,0.508
2014-06-22 03:09:00,1778E-3,5C000000,-0724,0838,12312,026.1,045.4,0.487,734.7,01.18,0.508
2014-06-22 03:10:00,1803E-3,5C000000,-0724,0838,12260,026.1,045.4,0.486,734.6,01.18,0.508
2014-06-22 03:11:00,1889E-3,5C000000,-0724,0838,12204,026.1,045.4,0.486,734.6,01.18,0.508
2014-06-22 03:12:00,1779E-3,5C000000,-0724,0838,12193,026.2,045.4,0.487,734.6,01.18,0.508
2014-06-22 03:13:00,1922E-3,5C000000,-0724,0838,12089,026.1,045.5,0.487,734.5,01.18,0.508
2014-06-22 03:14:00,1872E-3,5C000000,-0724,0838,12074,026.2,045.4,0.486,734.5,01.18,0.508
2014-06-22 03:15:00,1790E-3,5C000000,-0724,0839,12200,026.2,045.5,0.486,734.5,01.18,0.508
2014-06-22 03:16:00,1911E-3,5C000000,-0724,0838,11918,026.1,045.5,0.487,734.5,01.18,0.508
2014-06-22 03:17:00,1904E-3,5C000000,-0724,0838,12081,026.2,045.5,0.487,734.5,01.18,0.508
2014-06-22 03:18:00,1709E-3,5C000000,-0724,0837,12093,026.2,045.5,0.486,734.5,01.18,0.508
2014-06-22 03:19:00,1881E-3,5C000000,-0724,0837,12103,026.2,045.5,0.487,734.5,01.18,0.508
2014-06-22 03:20:00,1808E-3,5C000000,-0724,0837,11990,026.2,045.5,0.487,734.4,01.18,0.508
2014-06-22 03:21:00,1885E-3,5C000000,-0724,0840,12159,026.2,045.4,0.486,734.4,01.18,0.508
2014-06-22 03:22:00,1784E-3,5C000000,-0724,0838,12099,026.2,045.4,0.486,734.5,01.18,0.508
2014-06-22 03:23:00,1794E-3,5C000000,-0724,0837,12122,026.2,045.4,0.487,734.4,01.18,0.508
2014-06-22 03:24:00,1808E-3,5C000000,-0724,0839,12043,026.2,045.4,0.487,734.5,01.18,0.508
2014-06-22 03:25:00,1869E-3,5C000000,-0724,0838,12071,026.2,045.5,0.486,734.4,01.18,0.508
2014-06-22 03:26:00,1764E-3,5C000000,-0724,0839,11966,026.2,045.5,0.486,734.5,01.18,0.508
2014-06-22 03:27:00,1840E-3,5C000000,-0724,0838,12152,026.2,045.4,0.487,734.4,01.18,0.508
2014-06-22 03:28:00,1746E-3,5C000000,-0724,0837,12227,026.2,045.4,0.486,734.4,01.18,0.508
2014-06-22 03:29:00,1807E-3,5C000000,-0724,0838,12108,026.2,045.5,0.486,734.4,01.18,0.508
2014-06-22 03:30:00,1853E-3,5C000000,-0724,0838,12311,026.2,045.5,0.487,734.5,01.18,0.508
2014-06-22 03:31:00,1868E-3,5C000000,-0724,0839,12216,026.2,045.4,0.487,734.4,01.18,0.508
2014-06-22 03:32:00,1888E-3,5C000000,-0724,0838,12033,026.2,045.4,0.486,734.4,01.18,0.508
2014-06-22 03:33:00,1659E-3,5C000000,-0724,0838,11918,026.2,045.4,0.486,734.4,01.18,0.508
2014-06-22 03:34:00,1707E-3,5C000000,-0724,0838,12040,026.2,045.5,0.487,734.4,01.18,0.508
2014-06-22 03:35:00,1894E-3,5C000000,-0724,0837,12035,026.2,045.4,0.487,734.4,01.18,0.508
2014-06-22 03:36:00,1773E-3,5C000000,-0724,0838,12248,026.2,045.4,0.486,734.4,01.18,0.508
2014-06-22 03:37:00,1881E-3,5C000000,-0724,0838,12154,026.3,045.4,0.487,734.4,01.18,0.508
2014-06-22 03:38:00,1770E-3,5C000000,-0724,0838,12222,026.2,045.4,0.487,734.4,01.18,0.508
2014-06-22 03:39:00,1975E-3,5C000000,-0724,0838,12046,026.2,045.4,0.486,734.4,01.18,0.508
2014-06-22 03:40:00,1837E-3,5C000000,-0724,0839,11968,026.3,045.4,0.486,734.3,01.18,0.508
2014-06-22 03:41:00,1751E-3,5C000000,-0724,0838,12055,026.3,045.4,0.487,734.4,01.18,0.508
2014-06-22 03:42:00,1742E-3,5C000000,-0724,0838,12003,026.3,045.5,0.486,734.4,01.18,0.508
2014-06-22 03:43:00,1755E-3,5C000000,-0724,0838,12153,026.3,045.5,0.486,734.4,01.18,0.508
2014-06-22 03:44:00,1805E-3,5C000000,-0724,0838,12151,026.3,045.5,0.487,734.4,01.18,0.508
2014-06-22 03:45:00,1965E-3,5C000000,-0724,0837,12218,026.3,045.5,0.487,734.4,01.18,0.508
2014-06-22 03:46:00,1819E-3,5C000000,-0724,0838,12070,026.3,045.4,0.486,734.3,01.18,0.508
2014-06-22 03:47:00,1742E-3,5C000000,-0724,0838,12142,026.3,045.5,0.486,734.4,01.18,0.508
2014-06-22 03:48:00,1726E-3,5C000000,-0724,0838,12022,026.3,045.4,0.487,734.3,01.18,0.508
2014-06-22 03:49:00,1967E-3,5C000000,-0724,0838,12055,026.3,045.5,0.486,734.3,01.18,0.508
2014-06-22 03:50:00,1684E-3,5C000000,-0724,0838,11954,026.3,045.5,0.486,734.3,01.18,0.508
2014-06-22 03:51:00,1937E-3,5C000000,-0724,0838,11869,026.3,045.4,0.487,734.3,01.18,0.508
2014-06-22 03:52:00,1854E-3,5C000000,-0724,0838,12130,026.3,045.4,0.486,734.2,01.18,0.508
2014-06-22 03:53:00,1868E-3,5C000000,-0724,0838,12198,026.3,045.4,0.486,734.3,01.18,0.508
2014-06-22 03:54:00,1917E-3,5C000000,-0724,0838,12189,026.3,045.4,0.486,734.2,01.18,0.508
2014-06-22 03:55:00,1899E-3,5C000000,-0724,0838,11922,026.3,045.5,0.487,734.2,01.18,0.508
2014-06-22 03:56:00,1813E-3,5C000000,-0724,0838,12158,026.3,045.5,0.486,734.2,01.18,0.508
2014-06-22 03:57:00,1874E-3,5C000000,-0724,0838,12058,026.4,045.4,0.486,734.3,01.18,0.508
2014-06-22 03:58:00,1882E-3,5C000000,-0724,0838,12201,026.3,045.4,0.487,734.3,01.18,0.508
2014-06-22 03:59:00,1985E-3,5C000000,-0724,0838,12095,026.4,045.5,0.486,734.2,01.18,0.508
2014-06-22 04:00:00,1686E-3,5C000000,-0724,0838,12223,026.4,045.5,0.486,734.2,01.18,0.508
2014-06-22 04:01:00,1798E-3,5C000000,-0724,0838,12169,026.3,045.5,0.486,734.2,01.18,0.508
2014-06-22 04:02:00,1879E-3,5C000000,-0724,0838,12110,026.4,045.4,0.486,734.3,01.18,0.508
2014-06-22 04:03:00,1855E-3,5C000000,-0724,0838,12177,026.4,045.5,0.486,734.2,01.18,0.508
2014-06-22 04:04:00,1893E-3,5C000000,-0724,0839,12227,026.4,045.5,0.486,734.2,01.18,0.508
2014-06-22 04:05:00,1840E-3,5C000000,-0724,0838,12186,026.4,045.4,0.486,734.2,01.18,0.508
2014-06-22 04:06:00,1797E-3,5C000000,-0724,0838,12046,026.4,045.5,0.486,734.2,01.18,0.508
2014-06-22 04:07:00,1849E-3,5C000000,-0724,0839,12186,026.4,045.4,0.486,734.2,01.18,0.508
2014-06-22 04:08:00,1739E-3,5C000000,-0724,0839,12203,026.4,045.4,0.486,734.2,01.18,0.508
2014-06-22 04:09:00,1738E-3,5C000000,-0724,0838,12139,026.4,045.4,0.486,734.1,01.19,0.508
2014-06-22 04:10:00,1783E-3,5C000000,-0724,0838,12128,026.4,045.4,0.486,734.1,01.19,0.508
2014-06-22 04:11:00,1853E-3,5C000000,-0724,0838,12078,026.4,045.4,0.486,734.1,01.19,0.508
2014-06-22 04:12:00,1844E-3,5C000000,-0724,0838,12167,026.4,045.5,0.486,734.1,01.19,0.508
2014-06-22 04:13:00,1827E-3,5C000000,-0724,0837,12059,026.4,045.5,0.486,734.1,01.19,0.508
2014-06-22 04:14:00,1717E-3,5C000000,-0724,0839,12203,026.4,045.4,0.486,734.0,01.19,0.508
2014-06-22 04:15:00,1831E-3,5C000000,-0724,0837,12026,026.4,045.4,0.486,734.0,01.19,0.508
2014-06-22 04:16:00,1874E-3,5C000000,-0724,0837,12205,026.4,045.4,0.486,734.0,01.19,0.508
2014-06-22 04:17:00,1755E-3,5C000000,-0724,0838,12087,026.4,045.4,0.486,734.0,01.19,0.508
2014-06-22 04:18:00,1781E-3,5C000000,-0724,0838,11992,026.4,045.5,0.486,733.9,01.19,0.508
2014-06-22 04:19:00,2005E-3,5C000000,-0724,0838,12129,026.4,045.4,0.486,734.0,01.19,0.508
2014-06-22 04:20:00,1853E-3,5C000000,-0724,0838,12162,026.4,045.4,0.486,733.9,01.19,0.508